This demonstration page uses our WeatherBlox Daily Observations layout. Learn more.

38.88101, -77.10428

Hourly Observations for March 19, 2018

Temp ( °F °C ) Dew Point ( °F °C ) Humidity (%) Winds ( mph kmh ) Pressure ( in mb ) Visibility ( mi km ) Precip ( " mm )
12:52 am 00:52 Mostly Cloudy 41 5 31 -0.6 67 67 S 5 7 29.93 1014 10 16.0934 0 0
1:52 am 01:52 Mostly Cloudy 40 4.4 30 -1.1 68 68 S 7 11 29.93 1014 10 16.0934 0 0
2:52 am 02:52 Mostly Cloudy 40 4.4 28 -2.2 63 63 Calm 29.93 1014 10 16.0934 0 0
3:52 am 03:52 Mostly Cloudy 37 2.8 27 -2.8 67 67 SSW 5 7 29.91 1013 10 16.0934 0 0
4:52 am 04:52 Mostly Cloudy 39 3.9 28 -2.2 65 65 Calm 29.89 1012 10 16.0934 0 0
5:52 am 05:52 Partly Cloudy 36 2.2 28 -2.2 73 73 SSW 6 9 29.91 1013 10 16.0934 0 0
6:52 am 06:52 Mostly Cloudy 38 3.3 27 -2.8 65 65 Calm 29.91 1013 10 16.0934 0 0
7:52 am 07:52 Mostly Cloudy 38 3.3 30 -1.1 73 73 SSW 3 6 29.93 1013 10 16.0934 0 0
8:52 am 08:52 Mostly Cloudy 41 5 32 0 70 70 SE 3 6 29.92 1013 10 16.0934 0 0
9:52 am 09:52 Mostly Cloudy 44 6.7 33 0.6 65 65 SE 5 7 29.92 1013 10 16.0934 0 0
10:52 am 10:52 Mostly Cloudy 48 8.9 31 -0.6 52 52 Calm 29.91 1013 10 16.0934 0 0
11:52 am 11:52 Cloudy 54 12.2 28 -2.2 37 37 NE 5 7 29.92 1013 10 16.0934 0 0
12:52 pm 12:52 Cloudy 55 12.8 29 -1.7 37 37 ESE 8 13 29.92 1013 10 16.0934 0 0
1:52 pm 13:52 Cloudy 55 12.8 28 -2.2 35 35 ESE 8 13 29.9 1012 10 16.0934 0 0
2:52 pm 14:52 Cloudy 55 12.8 27 -2.8 34 34 E 10 17 29.87 1012 10 16.0934 0 0
3:52 pm 15:52 Mostly Cloudy 55 12.8 26 -3.3 33 33 ESE 13 20 29.86 1011 10 16.0934 0 0
4:52 pm 16:52 Mostly Cloudy 56 13.3 28 -2.2 34 34 ESE 6 9 29.85 1011 10 16.0934 0 0
5:52 pm 17:52 Mostly Cloudy 53 11.7 31 -0.6 43 43 SE 9 15 29.86 1011 10 16.0934 0 0
6:52 pm 18:52 Mostly Cloudy 52 11.1 31 -0.6 45 45 SE 9 15 29.87 1011 10 16.0934 0 0
7:52 pm 19:52 Mostly Cloudy 51 10.6 33 0.6 50 50 ESE 9 15 29.87 1012 10 16.0934 0 0
8:52 pm 20:52 Cloudy 49 9.4 34 1.1 56 56 E 10 17 29.88 1012 10 16.0934 0 0
9:52 pm 21:52 Cloudy 49 9.4 30 -1.1 48 48 E 7 11 29.89 1012 10 16.0934 0 0
10:52 pm 22:52 Cloudy 47 8.3 31 -0.6 54 54 E 12 19 29.88 1012 10 16.0934 0 0
11:52 pm 23:52 Cloudy 45 7.2 33 0.6 63 63 E 14 22 29.89 1012 10 16.0934 0 0

Powered by AerisWeather